Radioactive Concentration measured by Seawater Radiation Monitor near Fukushima Daiichi Nuclear Power Station
Date,Time,Cs137(Bq/L),Cs134(Bq/L),Total β(Bq/L)
2016/10/29,00:00,0.98,0.15,ND
2016/10/29,00:10,0.99,0.14,ND
2016/10/29,00:20,0.98,0.14,ND
2016/10/29,00:30,0.98,0.13,ND
2016/10/29,00:40,0.96,0.14,ND
2016/10/29,00:50,0.95,0.13,ND
2016/10/29,01:00,0.98,0.12,ND
2016/10/29,01:10,0.95,0.12,ND
2016/10/29,01:20,0.96,0.11,ND
2016/10/29,01:30,0.94,0.11,ND
2016/10/29,01:40,0.92,0.11,ND
2016/10/29,01:50,0.88,0.11,ND
2016/10/29,02:00,0.83,0.12,ND
2016/10/29,02:10,0.85,0.11,ND
2016/10/29,02:20,0.83,0.11,ND
2016/10/29,02:30,0.82,0.12,ND
2016/10/29,02:40,0.81,0.12,ND
2016/10/29,02:50,0.82,0.12,ND
2016/10/29,03:00,0.85,0.10,9.5
2016/10/29,03:10,0.82,0.10,ND
2016/10/29,03:20,0.83,0.093,ND
2016/10/29,03:30,0.84,0.081,ND
2016/10/29,03:40,0.86,0.088,ND
2016/10/29,03:50,0.85,0.090,ND
2016/10/29,04:00,0.85,0.090,ND
2016/10/29,04:10,0.86,0.10,ND
2016/10/29,04:20,0.86,0.12,ND
2016/10/29,04:30,0.87,0.12,ND
2016/10/29,04:40,0.92,0.11,ND
2016/10/29,04:50,0.94,0.12,ND
2016/10/29,05:00,0.96,0.12,ND
2016/10/29,05:10,0.96,0.12,ND
2016/10/29,05:20,0.99,0.12,ND
2016/10/29,05:30,0.98,0.12,ND
2016/10/29,05:40,0.97,0.12,ND
2016/10/29,05:50,1.0,0.11,ND
2016/10/29,06:00,1.0,0.11,ND
2016/10/29,06:10,1.1,0.11,ND
2016/10/29,06:20,1.0,0.11,ND
2016/10/29,06:30,1.1,0.13,ND
2016/10/29,06:40,1.1,0.13,ND
2016/10/29,06:50,1.1,0.13,ND
2016/10/29,07:00,1.1,0.13,ND
2016/10/29,07:10,1.1,0.15,ND
2016/10/29,07:20,1.1,0.14,ND
2016/10/29,07:30,1.1,0.14,ND
2016/10/29,07:40,1.1,0.13,ND
2016/10/29,07:50,1.1,0.14,ND
2016/10/29,08:00,1.1,0.15,ND
2016/10/29,08:10,1.1,0.14,ND
2016/10/29,08:20,1.1,0.15,ND
2016/10/29,08:30,1.1,0.15,ND
2016/10/29,08:40,1.1,0.15,ND
2016/10/29,08:50,1.1,0.15,ND
2016/10/29,09:00,1.1,0.13,ND
2016/10/29,09:10,1.1,0.12,ND
2016/10/29,09:20,1.1,0.12,ND
2016/10/29,09:30,1.1,0.13,ND
2016/10/29,09:40,1.0,0.13,ND
2016/10/29,09:50,0.95,0.13,ND
2016/10/29,10:00,0.94,0.12,ND
2016/10/29,10:10,0.92,0.12,ND
2016/10/29,10:20,0.90,0.12,ND
2016/10/29,10:30,0.89,0.12,ND
2016/10/29,10:40,0.84,0.11,ND
2016/10/29,10:50,0.85,0.097,ND
2016/10/29,11:00,0.86,0.099,ND
2016/10/29,11:10,0.86,0.096,ND
2016/10/29,11:20,0.85,0.10,ND
2016/10/29,11:30,0.86,0.11,ND
2016/10/29,11:40,0.90,0.097,ND
2016/10/29,11:50,0.95,0.12,ND
2016/10/29,12:00,0.95,0.11,ND
2016/10/29,12:10,0.95,0.12,ND
2016/10/29,12:20,0.90,0.097,ND
2016/10/29,12:30,0.89,0.10,ND
2016/10/29,12:40,0.89,0.11,ND
2016/10/29,12:50,0.91,0.14,ND
2016/10/29,13:00,0.90,0.14,ND
2016/10/29,13:10,0.87,0.11,ND
2016/10/29,13:20,0.90,0.13,ND
2016/10/29,13:30,0.93,0.12,ND
2016/10/29,13:40,0.91,0.12,ND
2016/10/29,13:50,0.93,0.11,ND
2016/10/29,14:00,0.87,0.094,ND
2016/10/29,14:10,0.85,0.10,ND
2016/10/29,14:20,0.86,0.10,ND
2016/10/29,14:30,0.87,0.10,ND
2016/10/29,14:40,0.88,0.11,ND
2016/10/29,14:50,0.89,0.10,ND
2016/10/29,15:00,0.91,0.11,ND
2016/10/29,15:10,0.94,0.10,ND
2016/10/29,15:20,0.95,0.099,ND
2016/10/29,15:30,1.0,0.12,ND
2016/10/29,15:40,0.99,0.099,ND
2016/10/29,15:50,0.99,0.11,ND
2016/10/29,16:00,0.99,0.11,ND
2016/10/29,16:10,0.99,0.12,ND
2016/10/29,16:20,1.0,0.12,ND
2016/10/29,16:30,0.98,0.13,ND
2016/10/29,16:40,1.0,0.12,ND
2016/10/29,16:50,1.0,0.15,ND
2016/10/29,17:00,1.0,0.14,ND
2016/10/29,17:10,1.0,0.14,ND
2016/10/29,17:20,1.1,0.14,ND
2016/10/29,17:30,1.1,0.14,ND
2016/10/29,17:40,1.1,0.16,ND
2016/10/29,17:50,1.1,0.14,ND
2016/10/29,18:00,1.2,0.15,ND
2016/10/29,18:10,1.2,0.13,ND
2016/10/29,18:20,1.2,0.13,ND
2016/10/29,18:30,1.1,0.13,ND
2016/10/29,18:40,1.2,0.13,ND
2016/10/29,18:50,1.2,0.12,ND
2016/10/29,19:00,1.1,0.12,ND
2016/10/29,19:10,1.1,0.13,ND
2016/10/29,19:20,1.1,0.13,ND
2016/10/29,19:30,1.1,0.13,ND
2016/10/29,19:40,1.1,0.13,ND
2016/10/29,19:50,1.1,0.13,ND
2016/10/29,20:00,1.1,0.12,ND
2016/10/29,20:10,1.1,0.11,ND
2016/10/29,20:20,1.1,0.11,ND
2016/10/29,20:30,1.1,0.12,ND
2016/10/29,20:40,1.1,0.11,ND
2016/10/29,20:50,1.1,0.11,ND
2016/10/29,21:00,1.1,0.12,ND
2016/10/29,21:10,1.1,0.11,ND
2016/10/29,21:20,1.1,0.12,ND
2016/10/29,21:30,1.1,0.11,ND
2016/10/29,21:40,1.1,0.10,ND
2016/10/29,21:50,1.1,0.11,ND
2016/10/29,22:00,1.1,0.11,ND
2016/10/29,22:10,1.1,0.11,ND
2016/10/29,22:20,1.1,0.10,ND
2016/10/29,22:30,1.1,0.096,ND
2016/10/29,22:40,1.1,0.10,ND
2016/10/29,22:50,1.0,0.11,ND
2016/10/29,23:00,1.1,0.12,ND
2016/10/29,23:10,1.1,0.13,ND
2016/10/29,23:20,1.0,0.14,ND
2016/10/29,23:30,1.0,0.11,ND
2016/10/29,23:40,1.0,0.11,ND
2016/10/29,23:50,1.1,0.12,ND
